Home   Weather   Porto   Past weeks
Flag for Portugal

Past Weather in Porto, Portugal — Yesterday and Last 2 Weeks

Now
59 °F

Clear.


Feels Like: 58 °F
Forecast: 68 / 59 °F
Wind: 8 mph from South

Location: Porto / Pedras Rubras

Current Time: Jun 18, 2019 at 4:21:10 am

Latest Report: Jun 18, 2019 at 3:30 am


Visibility: 10 mi

Pressure: 29.89 "Hg

Humidity: 77%

Dew Point: 52 °F

Location of PortoLocation

Past Weather in Porto — Graph

°F

Porto Temperature Yesterday

Maximum temperature yesterday: 66 °F (at 5:00 pm)
Minimum temperature yesterday: 52 °F (at 3:00 am)
Average temperature yesterday: 59 °F

High & Low Weather Summary for the Past Weeks

 TemperatureHumidityPressure
High68 °F (Jun 3, 11:00 am)100% (Jun 3, 5:30 am)30.24 "Hg (Jun 3, 5:30 am)
Low48 °F (Jun 8, 3:30 am)40% (Jun 11, 1:00 pm)29.68 "Hg (Jun 6, 3:30 pm)
Average59 °F80%30.04 "Hg
* Reported Jun 3 3:00 am — Jun 18 3:00 am, Porto. Weather by CustomWeather, © 2019

Note: Actual official high and low records may vary slightly from our data, if they occured in-between our weather recording intervals... More about our weather records

Advertising

Porto Weather History for the Previous 24 Hours

Scroll right to see more
 ConditionsComfort  
Time TempWeatherWind HumidityBarometerVisibility
3:00 am
Tue, Jun 18
57 °FClear.7 mph77%29.89 "Hg10 mi
2:30 am57 °FClear.7 mph77%29.89 "Hg10 mi
2:00 am55 °FClear.7 mph82%29.89 "Hg10 mi
1:30 am55 °FClear.8 mph82%29.92 "Hg10 mi
1:00 am57 °FClear.8 mph72%29.92 "Hg10 mi
12:30 am59 °FClear.7 mph68%29.92 "Hg10 mi
12:00 am59 °FClear.6 mph72%29.92 "Hg10 mi
11:30 pm
Mon, Jun 17
59 °FClear.5 mph77%29.92 "Hg10 mi
11:00 pm61 °FPassing clouds.7 mph72%29.92 "HgN/A
10:30 pm61 °FClear.7 mph72%29.92 "Hg10 mi
10:00 pm61 °FClear.7 mph72%29.92 "Hg10 mi
9:30 pm61 °FPassing clouds.7 mph72%29.92 "HgN/A
9:00 pm61 °FSunny.No wind77%29.92 "Hg10 mi
8:30 pm61 °FSunny.2 mph83%29.95 "Hg10 mi
8:00 pm63 °FPassing clouds.5 mph73%29.95 "HgN/A
7:30 pm63 °FPassing clouds.7 mph68%29.95 "HgN/A
7:00 pm63 °FPassing clouds.10 mph77%29.92 "HgN/A
6:30 pm64 °FPassing clouds.6 mph73%29.95 "HgN/A
6:00 pm64 °FPassing clouds.7 mph73%29.95 "HgN/A
5:30 pm66 °FPassing clouds.6 mph73%29.95 "HgN/A
5:00 pm66 °FPassing clouds.3 mph73%29.95 "HgN/A
4:30 pm63 °FPassing clouds.3 mph83%29.98 "HgN/A
4:00 pm63 °FScattered clouds.5 mph83%29.98 "HgN/A
3:30 pm63 °FLight rain. Scattered clouds.5 mph83%29.98 "HgN/A
3:00 pm63 °FPassing clouds.6 mph83%30.01 "HgN/A
2:30 pm64 °FPassing clouds.3 mph73%30.01 "HgN/A
2:00 pm61 °FPassing clouds.1 mph88%30.01 "HgN/A
1:30 pm61 °FPassing clouds.5 mph83%30.04 "HgN/A
1:00 pm61 °FPassing clouds.6 mph88%30.01 "HgN/A
12:30 pm61 °FScattered clouds.6 mph88%30.04 "HgN/A
12:00 pm61 °FScattered clouds.8 mph88%30.04 "HgN/A
11:30 am63 °FScattered clouds.7 mph83%30.04 "HgN/A
11:00 am61 °FScattered clouds.7 mph83%30.01 "HgN/A
10:30 am63 °FScattered clouds.6 mph83%30.01 "HgN/A
10:00 am61 °FPartly sunny.7 mph88%30.04 "HgN/A
9:30 am61 °FScattered clouds.2 mph88%30.01 "HgN/A
9:00 am61 °FScattered clouds.2 mph83%30.01 "HgN/A
8:30 am59 °FPassing clouds.5 mph94%30.01 "HgN/A
8:00 am59 °FPassing clouds.3 mph94%30.04 "HgN/A
7:30 am57 °FPassing clouds.5 mph100%30.04 "HgN/A
7:00 am54 °FPassing clouds.2 mph100%30.04 "HgN/A
6:30 am52 °FPassing clouds.2 mph100%30.04 "HgN/A
6:00 am52 °FClear.5 mph100%30.04 "Hg10 mi
5:30 am52 °FClear.5 mph100%30.04 "Hg10 mi
5:00 am52 °FClear.3 mph100%30.04 "Hg10 mi
4:30 am52 °FClear.No wind100%30.04 "Hg10 mi
4:00 am54 °FClear.No wind100%30.04 "Hg10 mi
Weather by CustomWeather, © 2019

See weather overview